Theta_e
296 296 296 296 296 296 296 296 297 298 298 298 299 299 298 298 299 297 294 298 292 286 289 291 291 286 286 285 280 278 280 278 277 278 277 276 278 280 281 285 285 285 286 285 284 282 282 294 298 292 298 291 297 301
296 296 296 296 296 296 296 296 297 297 298 298 298 299 298 299 299 298 291 297 297 287 286 293 293 294 292 291 284 284 280 280 282 277 278 275 280 283 282 277 290 284 288 285 289 288 292 296 299 299 297 294 296 300
295 295 296 296 296 295 295 296 296 297 297 298 298 298 298 299 299 298 293 295 291 286 287 287 286 292 293 291 291 281 281 286 284 291 286 281 278 284 278 282 285 289 295 287 287 292 289 291 291 291 292 294 297 298
294 295 295 295 295 295 295 296 296 296 297 298 298 298 298 299 300 298 291 294 289 286 279 284 292 286 290 291 290 289 287 288 288 289 283 280 281 284 282 285 285 288 291 290 286 287 288 289 290 291 292 294 295 296
293 293 294 294 294 295 295 295 296 295 296 296 298 297 298 299 300 292 289 290 293 284 281 284 287 288 289 288 287 287 286 285 285 283 283 281 284 285 285 285 285 291 289 288 288 290 288 287 289 293 293 292 293 293
293 293 293 293 294 294 294 295 295 295 296 296 297 297 297 299 296 288 281 287 291 289 282 280 285 287 287 288 287 286 287 286 285 283 283 285 289 284 283 280 288 292 294 293 289 290 290 291 292 294 292 292 293 293
293 293 293 292 292 293 294 294 295 295 295 295 296 296 296 296 292 286 284 290 294 292 285 278 275 284 286 287 286 285 287 285 285 283 284 285 283 287 284 280 287 293 294 293 292 292 289 291 289 291 291 291 292 291
293 293 291 291 292 292 293 293 293 294 295 296 296 297 296 295 293 288 291 295 295 289 287 279 277 281 287 281 281 287 284 284 284 284 285 284 285 285 282 287 290 293 294 294 294 294 292 291 290 290 290 290 289 288
293 292 291 292 291 291 292 292 293 293 295 296 298 295 292 290 284 287 295 295 293 288 282 279 275 274 285 282 285 285 285 280 285 282 283 284 281 279 283 287 290 291 290 292 294 293 292 290 289 289 289 288 287 287
292 291 291 291 291 291 291 293 293 293 294 296 290 286 280 285 296 294 287 284 285 286 286 281 282 277 283 282 281 281 282 279 276 279 282 280 277 285 286 289 292 291 292 292 288 286 288 288 288 287 287 288 289 289
292 291 291 290 291 291 291 293 293 293 292 285 280 281 287 295 285 281 281 280 279 278 279 280 281 278 284 280 280 282 278 280 275 278 278 277 277 282 287 289 292 292 293 292 293 291 291 288 287 287 288 290 290 289
292 292 290 291 291 291 291 292 293 287 287 286 287 290 287 286 279 278 276 278 279 277 277 277 278 281 282 284 279 280 279 280 275 280 277 275 280 284 285 285 288 290 292 293 293 290 288 289 289 289 288 287 286 284
291 291 291 291 291 292 293 292 292 293 292 291 287 283 278 278 271 274 273 277 275 278 278 279 274 280 283 284 280 279 276 273 281 275 275 277 283 285 285 286 287 288 289 289 289 289 289 288 287 285 283 283 282 281
292 291 291 291 292 292 292 291 292 291 288 284 280 269 272 270 276 277 277 277 281 280 279 277 278 281 281 279 279 274 278 279 273 272 275 279 281 284 286 286 286 285 286 286 286 285 284 284 283 283 283 283 282 281
291 291 291 291 292 291 291 293 294 288 282 278 278 269 273 277 278 278 279 280 281 282 282 281 279 279 277 275 279 277 273 272 276 276 278 282 283 284 284 284 284 283 283 283 283 282 282 282 281 280 281 281 281 279
290 290 290 292 291 291 292 291 289 285 278 280 279 275 276 275 273 276 277 278 283 282 282 278 277 276 276 278 277 273 275 272 278 281 281 283 283 283 283 283 283 283 283 282 281 280 280 280 279 279 279 278 278 279
290 285 290 291 291 291 291 286 282 278 279 281 277 282 279 281 280 280 281 280 284 279 274 277 272 276 277 274 276 277 276 280 282 281 281 283 283 283 283 283 282 282 282 282 281 281 280 280 280 279 277 277 279 280
283 286 290 291 291 287 284 284 277 277 278 277 274 276 279 279 281 282 277 279 281 283 280 280 279 278 272 275 273 281 282 283 284 283 283 283 283 283 283 282 282 282 281 281 281 281 280 280 279 278 279 280 280 280
286 288 291 291 290 285 277 278 281 275 275 276 276 279 280 280 279 281 281 279 279 286 284 282 276 274 276 278 281 281 282 282 282 283 283 283 283 281 282 281 281 280 279 279 280 280 280 281 281 281 280 281 279 280
290 290 291 291 289 275 273 275 282 278 277 276 277 275 278 278 279 280 278 281 280 279 276 275 273 274 274 278 280 283 283 284 283 280 281 282 282 281 281 280 279 280 280 280 281 281 281 281 280 281 281 280 280 279
287 287 288 287 283 281 277 275 275 277 278 275 278 278 274 277 276 277 278 278 274 272 272 274 274 276 279 280 280 281 282 284 282 281 282 281 282 282 281 280 280 281 281 280 280 280 281 280 280 281 281 281 281 281
286 289 283 285 276 275 274 280 277 277 276 276 276 277 272 267 270 276 277 271 271 271 273 273 275 276 278 276 276 276 278 284 282 282 283 283 281 281 280 281 281 280 281 281 281 280 280 280 281 281 281 280 281 280
287 285 282 281 272 271 272 279 276 277 271 273 277 274 272 271 276 278 271 272 271 273 274 274 275 276 275 276 276 275 276 277 277 278 279 281 283 283 282 281 280 280 280 280 282 281 279 279 280 280 280 280 280 279
286 280 273 273 274 267 276 270 275 275 273 273 272 269 271 271 276 267 264 265 268 272 272 273 273 273 273 273 271 272 273 275 276 273 274 277 282 281 283 283 283 283 280 281 282 281 281 280 280 280 279 279 279 279
273 271 270 265 272 267 265 263 267 269 261 265 263 262 263 270 268 263 262 264 264 262 265 270 272 271 270 270 271 272 273 273 272 271 272 273 273 280 282 283 282 282 282 282 280 279 279 280 279 279 279 278 279 279
265 267 269 267 266 267 266 261 259 260 261 259 261 267 269 262 258 257 261 261 259 260 258 262 264 266 268 269 268 269 271 273 273 270 270 272 271 271 275 278 278 277 280 281 279 278 278 278 278 278 278 279 279 279
264 266 275 277 276 274 266 267 270 263 257 257 259 258 257 255 254 260 263 264 264 262 263 264 264 265 264 266 267 269 270 272 271 271 272 272 272 272 272 272 271 272 276 280 280 279 278 277 278 278 277 277 278 279
272 272 265 267 268 272 260 261 259 258 260 268 264 255 255 256 258 263 262 262 263 268 267 268 270 268 266 265 267 267 266 270 271 271 272 271 271 271 272 272 273 275 274 275 278 280 280 278 278 278 277 277 276 276
267 271 269 262 264 264 259 259 259 265 268 264 256 258 260 263 262 261 263 263 263 270 262 262 261 267 265 265 266 266 266 265 265 264 264 265 266 267 270 270 271 272 272 273 275 275 274 274 275 275 274 274 272 270
268 272 264 260 259 260 261 261 259 257 266 265 267 267 266 263 261 258 261 262 265 261 256 256 255 261 256 257 255 259 261 262 263 262 261 262 265 267 269 269 269 270 271 271 271 271 274 273 274 273 273 273 272 272
273 269 264 264 262 263 262 257 258 259 257 259 254 259 260 259 261 260 264 260 258 255 258 256 254 251 257 253 253 252 254 257 254 260 261 261 261 261 262 264 267 269 269 269 269 269 269 270 270 270 271 271 271 271
268 264 262 261 261 262 259 260 256 256 254 255 256 253 255 255 258 260 260 259 256 256 260 262 258 255 253 252 252 252 255 255 253 253 253 252 253 254 258 260 262 264 265 266 266 266 266 267 267 267 267 268 269 269
266 264 262 260 258 257 257 257 258 258 256 255 261 256 253 258 259 261 264 260 260 259 258 257 255 253 254 254 254 254 255 254 254 261 257 257 254 254 250 250 250 252 255 256 259 261 262 264 264 264 265 265 265 265
Wind_Speed
22 23 23 23 23 24 25 26 26 27 29 29 29 26 23 21 19 8 3 7 3 2 4 3 4 9 6 10 9 4 4 2 1 10 9 9 11 10 18 15 12 8 7 7 7 3 3 10 21 29 25 2 7 24
23 24 22 22 23 24 25 26 26 27 29 28 28 27 22 23 16 5 2 3 3 4 2 2 4 2 5 8 7 4 6 4 5 4 5 2 8 4 10 18 9 8 7 2 8 8 6 19 24 13 9 7 6 13
24 24 23 23 23 24 25 25 26 26 28 27 26 27 24 9 10 7 1 1 3 2 3 3 1 3 4 3 3 7 2 5 3 2 2 5 7 4 9 13 17 15 8 0 5 5 4 9 6 3 2 5 7 8
23 24 23 23 24 24 24 24 24 25 27 27 25 25 21 16 9 7 2 1 3 2 3 1 1 1 2 5 5 5 4 4 3 3 3 4 2 2 7 10 4 4 3 17 3 7 6 2 4 7 7 11 12 12
22 22 23 24 24 23 24 24 24 25 27 27 23 23 27 10 6 5 2 1 1 5 1 1 2 4 2 3 2 2 4 3 2 2 4 6 4 3 3 3 7 6 7 10 13 10 5 5 7 13 14 12 16 21
21 21 22 23 24 24 24 24 24 25 26 26 24 15 21 11 10 4 4 3 2 3 3 2 1 3 5 5 7 9 7 5 4 4 4 4 4 6 4 5 7 8 6 6 5 7 5 13 8 9 17 15 15 19
20 20 21 22 23 24 24 24 24 26 27 26 23 5 10 11 4 3 1 1 3 2 2 2 3 3 5 5 3 3 6 5 5 4 6 6 5 10 4 9 9 8 2 6 6 16 10 13 11 13 18 16 18 15
19 19 22 22 23 23 24 23 26 27 28 27 22 8 3 4 4 1 2 3 2 2 1 2 2 2 6 2 2 3 3 4 7 4 4 6 5 4 6 7 9 8 13 7 1 5 12 14 16 17 17 17 17 15
17 19 20 21 22 22 23 24 25 28 29 27 7 3 2 1 1 2 7 3 2 1 1 1 2 3 3 2 1 1 2 3 1 4 3 3 3 7 10 15 18 19 13 19 11 10 14 17 18 18 18 17 18 15
17 18 18 20 22 21 22 23 23 27 29 13 4 3 4 2 9 8 1 1 1 2 2 2 1 2 2 2 2 2 1 2 2 1 2 2 4 10 9 5 12 14 18 23 21 18 12 17 20 20 18 15 15 15
18 18 18 21 19 20 20 21 21 23 10 5 4 3 3 5 2 2 2 1 1 2 2 3 3 2 2 2 2 2 2 1 2 1 2 1 3 5 4 6 13 14 15 14 13 22 23 18 16 16 15 15 15 15
18 17 18 19 19 19 19 19 21 6 5 5 6 6 3 2 1 1 3 3 4 3 1 3 3 3 2 1 1 2 2 2 2 1 2 2 3 11 1 6 9 12 18 14 16 20 18 18 15 15 14 14 12 13
18 17 18 19 19 20 19 21 20 17 12 2 3 3 2 3 3 2 3 1 3 1 2 1 1 2 2 1 2 2 2 2 1 2 2 3 3 5 5 12 15 17 19 18 16 18 19 20 17 19 16 12 15 14
18 17 18 18 15 16 21 22 18 9 3 2 3 4 4 4 2 1 2 2 4 3 3 2 1 0 3 1 2 1 2 1 2 2 0 1 2 7 9 10 17 17 19 21 18 17 18 18 16 15 15 13 14 13
16 18 19 10 15 19 22 21 18 1 2 1 3 2 2 3 4 4 3 2 2 3 3 2 2 1 2 1 1 2 3 3 2 1 1 2 5 9 9 11 13 13 15 16 16 16 15 15 15 13 10 11 13 12
16 16 2 14 18 21 22 14 2 2 3 1 2 3 3 1 4 4 3 2 3 1 0 2 1 1 3 2 1 3 2 1 2 1 2 6 9 11 10 10 11 11 14 14 13 15 14 13 14 13 11 10 9 10
14 4 11 18 20 22 17 2 3 1 2 2 1 1 3 1 1 2 1 2 4 3 1 1 1 4 1 2 2 3 2 3 3 4 4 7 12 10 9 11 11 12 13 14 14 13 13 12 12 13 14 7 8 7
4 7 16 17 14 7 3 2 2 1 2 1 3 3 2 2 2 2 3 3 3 2 2 1 3 3 3 4 3 3 4 4 5 5 6 8 10 9 9 13 10 11 12 12 12 11 11 10 10 8 11 10 8 7
7 9 15 17 8 3 2 4 2 1 2 2 1 2 1 2 2 2 2 3 2 1 2 2 5 4 4 5 4 3 3 3 4 4 6 7 9 11 11 10 10 10 10 10 10 7 7 6 7 8 7 7 6 5
16 15 13 11 4 2 3 4 2 1 2 3 1 2 1 2 2 2 2 4 3 3 6 6 5 4 4 7 6 2 3 2 5 6 5 5 6 10 10 7 6 8 8 8 7 7 5 5 4 6 6 5 6 5
8 3 6 1 0 2 3 1 3 2 1 0 2 0 2 2 2 3 4 5 6 5 4 4 5 6 9 8 8 5 6 3 2 3 4 4 4 7 6 6 6 6 6 5 6 5 5 5 5 5 5 5 5 5
3 6 1 1 2 3 1 2 2 3 2 2 2 0 2 3 3 4 3 7 4 3 4 5 7 7 5 10 10 12 10 4 5 7 8 8 5 5 5 5 5 4 4 5 5 5 4 5 5 5 6 5 6 5
6 1 2 1 4 3 5 2 3 2 2 3 2 3 3 3 2 2 5 3 2 3 4 5 7 7 8 8 11 13 14 12 7 6 3 3 5 5 5 5 5 5 5 3 5 6 6 7 7 6 6 5 5 4
1 1 2 1 1 3 2 3 2 3 4 3 3 2 2 1 2 4 4 3 2 4 6 9 7 5 6 12 9 9 9 7 4 7 8 5 3 3 4 4 4 4 4 6 6 6 7 6 8 6 5 5 5 5
3 3 4 3 3 4 3 4 4 4 2 1 4 4 4 2 4 4 2 1 2 3 4 6 5 6 6 5 6 8 12 8 6 7 8 7 5 3 4 4 3 4 5 8 6 7 7 7 6 7 5 4 5 5
2 4 3 4 3 4 3 3 1 2 3 4 1 3 3 4 5 1 1 3 2 1 1 2 2 3 5 6 5 7 8 7 4 6 7 8 7 4 4 7 6 2 2 5 8 9 9 8 8 9 5 5 6 7
2 3 2 1 1 4 4 3 2 5 3 2 2 3 4 5 1 3 1 1 2 3 2 1 3 3 1 3 3 4 5 5 6 5 4 7 7 9 9 6 5 3 4 7 8 10 11 10 9 8 6 3 4 6
3 2 4 2 4 3 4 3 3 3 2 1 4 3 5 6 5 3 3 3 3 3 3 2 3 4 3 3 4 5 3 4 3 2 3 7 9 9 10 8 8 12 8 7 5 6 8 9 10 9 8 6 3 3
2 1 4 5 4 3 2 4 3 2 1 3 5 1 2 0 2 2 1 2 2 4 3 3 4 3 4 4 6 7 6 5 6 10 9 7 7 8 8 8 8 8 8 9 14 11 10 7 7 7 7 5 4 3
1 2 4 3 4 1 3 2 2 3 2 3 3 3 3 2 3 1 3 3 4 3 4 3 2 5 3 4 2 5 5 5 6 4 4 4 4 5 6 7 7 7 7 8 8 8 11 7 6 4 5 4 4 3
2 3 3 3 3 1 2 2 2 3 4 3 3 5 3 2 4 3 3 3 3 4 4 4 4 2 5 3 3 3 3 4 4 5 4 3 3 5 5 6 6 5 5 6 6 6 6 6 6 6 6 5 5 5
3 2 4 4 0 3 4 3 1 2 2 4 2 3 4 5 1 3 2 4 4 3 2 5 5 1 3 2 2 2 4 2 1 2 4 3 3 3 3 4 5 5 5 6 5 5 5 5 4 4 4 5 5 5
3 4 4 4 3 2 4 5 4 2 4 2 1 2 3 4 4 4 2 2 5 5 5 4 3 3 4 4 3 1 3 2 3 4 4 4 4 3 3 3 4 4 6 4 5 4 6 6 4 4 3 3 3 2
Wind_Direction
312 311 312 316 318 320 321 323 323 324 325 324 324 321 313 310 297 326 305 12 14 35 42 97 128 148 132 186 185 210 86 283 182 216 226 214 236 239 235 243 249 232 239 202 170 204 237 157 143 165 198 152 158 188
320 316 314 315 318 318 320 322 322 325 325 326 328 331 327 302 260 307 342 336 18 53 37 27 11 112 166 169 133 184 166 157 180 165 202 190 248 235 232 244 195 242 190 292 226 198 207 170 175 191 174 169 154 171
317 317 319 318 318 319 320 321 322 325 326 329 329 336 327 328 214 186 203 3 49 41 21 45 104 348 31 83 106 127 217 165 180 201 170 223 239 178 255 287 267 241 212 85 285 263 254 128 95 157 178 153 137 148
311 318 321 321 321 322 322 322 323 327 328 331 331 343 334 334 209 167 153 218 101 105 116 237 275 348 79 67 63 72 104 61 65 129 196 239 239 209 245 231 270 216 286 207 245 283 0 6 147 144 103 109 104 121
311 314 320 321 323 324 325 328 326 329 331 333 335 349 338 286 210 99 106 269 135 118 351 116 162 191 148 101 119 112 146 151 153 209 204 212 194 174 211 312 240 213 205 215 219 201 174 179 159 139 124 128 128 123
310 314 316 317 321 325 327 328 326 331 330 332 336 343 349 66 113 78 17 347 327 112 79 293 277 165 170 182 205 203 195 203 196 190 214 230 253 161 210 223 219 225 227 213 262 169 164 132 122 135 119 129 122 119
308 313 317 320 320 322 325 325 325 328 329 328 330 308 6 19 36 76 177 269 260 81 142 287 294 203 167 206 210 194 188 195 194 206 220 223 219 194 216 234 209 186 102 65 133 124 118 140 122 105 100 101 99 107
308 315 316 319 319 320 323 324 326 327 326 324 320 239 253 84 85 9 298 9 106 90 214 233 245 184 183 184 226 193 223 175 192 213 202 197 164 209 232 197 163 157 131 129 120 46 94 101 103 97 108 118 113 108
310 313 319 317 318 318 321 324 324 328 325 325 325 274 316 179 242 225 152 83 33 225 239 152 171 242 160 193 224 238 245 233 199 230 193 192 160 211 224 189 174 166 168 152 136 134 139 139 135 143 142 139 130 130
308 315 316 319 315 318 318 322 325 329 325 336 30 44 337 273 133 135 255 101 211 191 232 249 182 252 186 175 218 252 245 256 266 247 272 256 269 269 253 227 173 164 156 149 144 140 174 168 167 157 144 137 126 120
309 312 315 317 317 317 316 321 328 336 340 9 7 355 289 251 9 21 325 233 230 261 204 220 191 190 214 212 237 227 256 225 263 303 295 245 260 296 246 187 172 152 157 180 154 146 152 156 145 130 120 113 113 115
309 314 321 315 317 315 312 316 324 340 304 275 292 298 286 286 326 221 238 267 197 243 256 154 224 186 265 179 169 231 269 222 260 214 275 258 288 301 184 115 119 130 141 161 144 130 130 126 120 111 106 100 102 105
308 312 320 319 311 309 308 313 318 314 309 244 181 244 97 280 9 192 269 332 341 300 226 117 311 144 323 210 264 149 255 262 75 299 255 244 330 338 30 100 101 92 97 108 102 95 104 106 109 110 103 106 107 96
307 312 319 313 310 317 313 314 314 322 285 225 186 307 150 305 286 276 271 235 258 256 169 132 27 186 232 287 217 76 274 118 274 270 321 298 27 50 49 81 87 93 99 96 95 95 91 92 92 98 108 116 114 112
313 317 311 305 324 321 318 314 311 233 178 265 58 258 292 262 258 253 243 285 263 160 100 12 283 186 293 12 258 60 6 271 244 275 128 61 40 92 81 86 92 94 99 106 112 107 104 107 103 95 90 100 103 107
318 318 281 330 338 328 321 313 329 101 19 83 36 356 299 266 309 345 341 341 1 126 83 66 274 33 272 207 242 235 243 32 341 71 83 105 98 80 86 89 89 96 100 99 99 104 103 105 109 104 94 90 95 104
317 231 312 329 333 327 315 337 28 2 217 102 330 336 273 301 322 321 338 308 316 66 255 10 60 237 18 349 24 12 13 29 67 80 70 102 108 111 103 87 89 95 99 102 103 100 103 103 103 104 107 103 104 105
249 280 305 318 330 323 303 30 61 279 102 281 109 269 295 263 330 353 301 325 21 18 359 334 327 31 24 6 336 42 60 66 67 87 93 95 92 95 106 106 100 99 101 95 99 102 110 114 114 118 124 126 120 124
278 283 296 307 318 299 328 315 87 31 236 219 254 287 171 251 253 281 300 305 230 238 351 38 47 23 360 347 359 62 50 65 94 83 80 87 95 95 95 93 96 99 102 109 115 122 117 116 124 129 125 130 129 138
295 291 283 296 306 83 360 300 92 163 201 249 15 331 192 207 241 295 330 354 20 40 41 35 28 354 328 315 309 6 66 70 109 102 93 87 100 105 109 111 111 114 107 108 110 116 123 119 108 125 133 135 137 138
303 300 326 4 359 135 186 294 338 195 233 188 251 293 264 20 27 19 40 354 54 29 44 30 340 322 321 338 353 4 30 9 92 85 114 105 87 102 107 111 106 115 123 129 132 119 112 121 125 126 120 125 121 115
260 320 309 335 73 351 39 255 181 263 103 233 336 55 65 39 22 37 51 43 49 21 359 335 335 332 5 25 5 11 355 15 90 108 104 117 128 127 131 133 128 125 122 131 135 134 115 117 114 106 107 112 115 123
293 16 310 13 47 42 257 16 46 338 76 291 15 37 24 44 63 96 74 69 78 4 341 343 355 19 26 23 26 14 13 16 31 31 42 108 127 133 139 145 136 140 141 139 137 132 135 136 125 122 127 126 125 124
10 55 80 279 134 235 353 350 10 46 16 29 31 52 20 31 100 63 76 58 346 360 1 358 14 12 19 28 25 8 6 354 23 37 20 6 151 156 146 155 156 161 153 143 136 133 138 137 134 128 130 133 146 154
99 277 106 296 299 64 46 19 8 50 59 26 60 346 312 13 72 60 87 128 349 342 352 356 22 32 30 24 10 6 11 12 27 36 18 10 345 248 154 159 155 153 143 152 150 145 142 140 139 138 146 157 168 161
163 258 141 200 269 115 172 80 94 170 90 32 305 318 22 65 62 49 204 200 234 244 306 8 360 15 30 20 8 4 358 358 19 45 22 11 11 351 282 162 148 102 12 159 149 151 150 146 146 142 155 174 169 151
153 247 191 253 39 78 50 35 61 84 88 127 266 26 61 71 192 235 271 266 127 230 184 126 96 79 49 4 351 355 346 8 58 48 14 20 22 21 26 40 40 340 298 162 158 155 151 150 149 144 142 125 149 162
214 115 131 290 60 61 112 69 98 165 207 289 68 57 128 165 205 222 181 231 157 129 86 52 78 75 55 19 6 359 351 344 355 20 29 36 30 24 24 25 24 27 37 49 92 130 144 149 147 144 149 151 133 119
79 63 82 36 42 46 110 150 187 257 237 94 112 124 169 129 206 129 234 148 98 111 78 74 9 82 64 36 34 26 23 17 51 63 55 41 27 21 11 16 20 22 21 36 49 62 75 91 106 119 118 129 139 127
157 102 90 73 92 119 259 150 182 256 15 130 120 79 54 22 291 257 74 71 111 138 175 146 156 88 107 92 37 23 13 25 40 64 69 40 26 357 12 18 19 21 22 31 36 38 41 52 75 78 90 95 94 99
101 90 89 87 82 310 219 249 7 55 40 51 4 101 156 188 336 352 118 130 123 98 90 79 49 28 102 85 112 87 13 334 52 59 61 53 34 24 6 358 358 21 35 35 34 36 43 48 48 58 74 91 117 122
40 96 112 100 83 301 31 75 136 86 357 57 317 49 16 50 86 291 262 97 70 79 144 134 122 219 217 155 134 131 152 167 98 97 80 68 39 9 16 18 11 17 30 39 35 33 37 43 52 56 62 64 60 85
48 44 72 89 40 13 304 80 22 30 28 38 15 147 174 145 166 231 314 123 158 164 164 167 166 158 145 129 132 137 150 170 167 104 85 86 78 46 31 21 28 37 47 41 32 30 33 28 30 29 52 67 59 111